Wetterdaten: Donnerstag, 15.07.2010
Datum Zeit Temp. A. Feuchte A. Luftdruck Regen Wind Richtung Richtung Sonnenschein UV Solar Windben
15.07.2010 00:00 19,9 C 92 % 1005,5 hPa 0,0 mm 0,0 km/h (0 Bft) O-SO 112 0 min 0 UV-I 0 W/m 1,6 km/h (1 Bft)
15.07.2010 00:10 19,8 C 92 % 1005,7 hPa 0,0 mm 0,0 km/h (0 Bft) O-SO 112 0 min 0 UV-I 0 W/m 1,6 km/h (1 Bft)
15.07.2010 00:20 19,9 C 92 % 1005,9 hPa 0,0 mm 1,6 km/h (1 Bft) O-SO 112 0 min 0 UV-I 0 W/m 6,4 km/h (2 Bft)
15.07.2010 00:30 19,7 C 92 % 1006,1 hPa 0,0 mm 3,2 km/h (1 Bft) SO 135 0 min 0 UV-I 0 W/m 9,7 km/h (2 Bft)
15.07.2010 00:40 19,5 C 92 % 1006,2 hPa 0,0 mm 1,6 km/h (1 Bft) SO 135 0 min 0 UV-I 0 W/m 8,0 km/h (2 Bft)
15.07.2010 00:50 19,4 C 92 % 1006,5 hPa 0,0 mm 1,6 km/h (1 Bft) S 180 0 min 0 UV-I 0 W/m 8,0 km/h (2 Bft)
15.07.2010 01:00 19,3 C 92 % 1006,0 hPa 0,0 mm 1,6 km/h (1 Bft) SO 135 0 min 0 UV-I 0 W/m 6,4 km/h (2 Bft)
15.07.2010 01:10 19,3 C 92 % 1006,1 hPa 0,0 mm 1,6 km/h (1 Bft) S-SO 157 0 min 0 UV-I 0 W/m 4,8 km/h (1 Bft)
15.07.2010 01:20 19,3 C 92 % 1006,5 hPa 0,0 mm 1,6 km/h (1 Bft) S-SO 157 0 min 0 UV-I 0 W/m 8,0 km/h (2 Bft)
15.07.2010 01:30 19,2 C 92 % 1006,5 hPa 0,0 mm 1,6 km/h (1 Bft) S-SO 157 0 min 0 UV-I 0 W/m 6,4 km/h (2 Bft)
15.07.2010 01:40 19,2 C 92 % 1006,5 hPa 0,0 mm 0,0 km/h (0 Bft) S 180 0 min 0 UV-I 0 W/m 6,4 km/h (2 Bft)
15.07.2010 01:50 19,2 C 91 % 1006,7 hPa 0,0 mm 0,0 km/h (0 Bft) S 180 0 min 0 UV-I 0 W/m 3,2 km/h (1 Bft)
15.07.2010 02:00 19,1 C 91 % 1007,0 hPa 0,0 mm 0,0 km/h (0 Bft) S 180 0 min 0 UV-I 0 W/m 3,2 km/h (1 Bft)
15.07.2010 02:10 19,0 C 91 % 1006,8 hPa 0,0 mm 0,0 km/h (0 Bft) S 180 0 min 0 UV-I 0 W/m 1,6 km/h (1 Bft)
15.07.2010 02:20 19,1 C 91 % 1007,3 hPa 0,0 mm 0,0 km/h (0 Bft) S 180 0 min 0 UV-I 0 W/m 1,6 km/h (1 Bft)
15.07.2010 02:30 18,9 C 91 % 1007,6 hPa 0,0 mm 0,0 km/h (0 Bft) S 180 0 min 0 UV-I 0 W/m 3,2 km/h (1 Bft)
15.07.2010 02:40 18,8 C 91 % 1007,7 hPa 0,0 mm 0,0 km/h (0 Bft) S 180 0 min 0 UV-I 0 W/m 1,6 km/h (1 Bft)
15.07.2010 02:50 18,7 C 91 % 1007,6 hPa 0,0 mm 0,0 km/h (0 Bft) S 180 0 min 0 UV-I 0 W/m 1,6 km/h (1 Bft)
15.07.2010 03:00 18,7 C 91 % 1008,0 hPa 0,0 mm 0,0 km/h (0 Bft) S 180 0 min 0 UV-I 0 W/m 1,6 km/h (1 Bft)
15.07.2010 03:10 18,7 C 91 % 1007,7 hPa 0,0 mm 0,0 km/h (0 Bft) N 0 0 min 0 UV-I 0 W/m 0,0 km/h (0 Bft)
15.07.2010 03:20 18,5 C 91 % 1007,9 hPa 0,0 mm 0,0 km/h (0 Bft) N 0 0 min 0 UV-I 0 W/m 0,0 km/h (0 Bft)
15.07.2010 03:30 18,4 C 91 % 1008,3 hPa 0,0 mm 0,0 km/h (0 Bft) S-SW 202 0 min 0 UV-I 0 W/m 6,4 km/h (2 Bft)
15.07.2010 03:40 18,3 C 89 % 1008,3 hPa 0,0 mm 1,6 km/h (1 Bft) SW 225 0 min 0 UV-I 0 W/m 6,4 km/h (2 Bft)
15.07.2010 03:50 18,5 C 89 % 1008,6 hPa 0,0 mm 0,0 km/h (0 Bft) SW 225 0 min 0 UV-I 0 W/m 3,2 km/h (1 Bft)
15.07.2010 04:00 18,5 C 88 % 1008,3 hPa 0,0 mm 0,0 km/h (0 Bft) SW 225 0 min 0 UV-I 0 W/m 3,2 km/h (1 Bft)
15.07.2010 04:10 18,4 C 88 % 1008,6 hPa 0,0 mm 0,0 km/h (0 Bft) SW 225 0 min 0 UV-I 0 W/m 4,8 km/h (1 Bft)
15.07.2010 04:20 18,6 C 88 % 1008,5 hPa 0,0 mm 0,0 km/h (0 Bft) SW 225 0 min 0 UV-I 0 W/m 4,8 km/h (1 Bft)
15.07.2010 04:30 18,4 C 89 % 1008,6 hPa 0,0 mm 0,0 km/h (0 Bft) SW 225 0 min 0 UV-I 0 W/m 1,6 km/h (1 Bft)
15.07.2010 04:40 18,2 C 89 % 1008,6 hPa 0,0 mm 0,0 km/h (0 Bft) SW 225 0 min 0 UV-I 0 W/m 4,8 km/h (1 Bft)
15.07.2010 04:50 18,2 C 89 % 1008,5 hPa 0,0 mm 0,0 km/h (0 Bft) SW 225 0 min 0 UV-I 0 W/m 3,2 km/h (1 Bft)
15.07.2010 05:00 18,1 C 89 % 1008,5 hPa 0,0 mm 1,6 km/h (1 Bft) S 180 0 min 0 UV-I 0 W/m 6,4 km/h (2 Bft)
15.07.2010 05:10 18,2 C 89 % 1008,4 hPa 0,0 mm 0,0 km/h (0 Bft) S 180 0 min 0 UV-I 0 W/m 4,8 km/h (1 Bft)
15.07.2010 05:20 18,1 C 88 % 1008,3 hPa 0,0 mm 1,6 km/h (1 Bft) S 180 0 min 0 UV-I 0 W/m 9,7 km/h (2 Bft)
15.07.2010 05:30 18,1 C 87 % 1008,3 hPa 0,0 mm 1,6 km/h (1 Bft) S 180 0 min 0 UV-I 0 W/m 9,7 km/h (2 Bft)
15.07.2010 05:40 18,1 C 87 % 1008,2 hPa 0,0 mm 1,6 km/h (1 Bft) S-SW 202 0 min 0 UV-I 0 W/m 6,4 km/h (2 Bft)
15.07.2010 05:50 18,1 C 86 % 1008,6 hPa 0,0 mm 1,6 km/h (1 Bft) S 180 0 min 0 UV-I 9 W/m 14,5 km/h (3 Bft)
15.07.2010 06:00 18,1 C 85 % 1008,9 hPa 0,0 mm 1,6 km/h (1 Bft) S 180 0 min 0 UV-I 18 W/m 8,0 km/h (2 Bft)
15.07.2010 06:10 17,9 C 85 % 1009,0 hPa 0,0 mm 1,6 km/h (1 Bft) S-SW 202 0 min 0 UV-I 30 W/m 9,7 km/h (2 Bft)
15.07.2010 06:20 18,0 C 85 % 1009,1 hPa 0,0 mm 1,6 km/h (1 Bft) S-SW 202 0 min 0 UV-I 28 W/m 8,0 km/h (2 Bft)
15.07.2010 06:30 18,1 C 84 % 1009,1 hPa 0,0 mm 1,6 km/h (1 Bft) W-SW 247 0 min 0 UV-I 58 W/m 9,7 km/h (2 Bft)
15.07.2010 06:40 18,1 C 84 % 1009,1 hPa 0,0 mm 3,2 km/h (1 Bft) SW 225 10 min 0 UV-I 90 W/m 11,3 km/h (2 Bft)
15.07.2010 06:50 18,2 C 83 % 1009,3 hPa 0,0 mm 3,2 km/h (1 Bft) S-SW 202 0 min 0 UV-I 91 W/m 14,5 km/h (3 Bft)
15.07.2010 07:00 18,1 C 83 % 1009,4 hPa 0,0 mm 3,2 km/h (1 Bft) S-SW 202 0 min 0 UV-I 67 W/m 16,1 km/h (3 Bft)
15.07.2010 07:10 18,2 C 83 % 1009,4 hPa 0,0 mm 4,8 km/h (1 Bft) SW 225 10 min 1 UV-I 151 W/m 14,5 km/h (3 Bft)
15.07.2010 07:20 18,3 C 82 % 1009,5 hPa 0,0 mm 4,8 km/h (1 Bft) S-SW 202 10 min 1 UV-I 181 W/m 16,1 km/h (3 Bft)
15.07.2010 07:30 18,6 C 82 % 1009,5 hPa 0,0 mm 3,2 km/h (1 Bft) S-SW 202 10 min 1 UV-I 214 W/m 16,1 km/h (3 Bft)
15.07.2010 07:40 18,8 C 81 % 1009,8 hPa 0,0 mm 3,2 km/h (1 Bft) S-SW 202 10 min 1 UV-I 237 W/m 14,5 km/h (3 Bft)
15.07.2010 07:50 19,1 C 80 % 1010,0 hPa 0,0 mm 4,8 km/h (1 Bft) SW 225 10 min 1 UV-I 258 W/m 12,9 km/h (3 Bft)
15.07.2010 08:00 19,3 C 79 % 1010,1 hPa 0,0 mm 4,4 km/h (1 Bft) S-SW 202 10 min 1 UV-I 283 W/m 11,3 km/h (2 Bft)
15.07.2010 08:10 19,6 C 77 % 1010,4 hPa 0,0 mm 3,2 km/h (1 Bft) SW 225 10 min 1 UV-I 313 W/m 14,5 km/h (3 Bft)
15.07.2010 08:20 19,9 C 75 % 1010,3 hPa 0,0 mm 4,8 km/h (1 Bft) S-SW 202 10 min 1 UV-I 339 W/m 20,9 km/h (4 Bft)
15.07.2010 08:30 20,2 C 73 % 1010,5 hPa 0,0 mm 6,4 km/h (2 Bft) SW 225 10 min 2 UV-I 376 W/m 20,9 km/h (4 Bft)
15.07.2010 08:40 20,3 C 70 % 1010,5 hPa 0,0 mm 6,4 km/h (2 Bft) SW 225 10 min 2 UV-I 408 W/m 19,3 km/h (3 Bft)
15.07.2010 08:50 20,5 C 69 % 1010,6 hPa 0,0 mm 6,4 km/h (2 Bft) S-SW 202 10 min 2 UV-I 489 W/m 20,9 km/h (4 Bft)
15.07.2010 09:00 20,4 C 68 % 1010,7 hPa 0,0 mm 8,0 km/h (2 Bft) W-SW 247 10 min 2 UV-I 520 W/m 27,4 km/h (4 Bft)
15.07.2010 09:10 20,2 C 69 % 1010,9 hPa 0,0 mm 8,0 km/h (2 Bft) W-SW 247 10 min 2 UV-I 557 W/m 27,4 km/h (4 Bft)
15.07.2010 09:20 20,8 C 68 % 1010,9 hPa 0,0 mm 6,4 km/h (2 Bft) W-SW 247 10 min 3 UV-I 624 W/m 17,7 km/h (3 Bft)
15.07.2010 09:30 21,4 C 65 % 1011,0 hPa 0,0 mm 8,0 km/h (2 Bft) S-SW 202 10 min 3 UV-I 652 W/m 20,9 km/h (4 Bft)
15.07.2010 09:40 21,8 C 63 % 1011,1 hPa 0,0 mm 8,0 km/h (2 Bft) S-SW 202 10 min 3 UV-I 751 W/m 22,5 km/h (4 Bft)
15.07.2010 09:50 21,4 C 61 % 1011,2 hPa 0,0 mm 9,7 km/h (2 Bft) SW 225 10 min 4 UV-I 712 W/m 29,0 km/h (5 Bft)
15.07.2010 10:00 21,8 C 61 % 1011,3 hPa 0,0 mm 9,7 km/h (2 Bft) W-SW 247 10 min 4 UV-I 679 W/m 24,1 km/h (4 Bft)
15.07.2010 10:10 22,2 C 59 % 1011,3 hPa 0,0 mm 9,7 km/h (2 Bft) SW 225 10 min 4 UV-I 728 W/m 27,4 km/h (4 Bft)
15.07.2010 10:20 21,9 C 58 % 1011,5 hPa 0,0 mm 8,0 km/h (2 Bft) S-SW 202 10 min 4 UV-I 715 W/m 20,9 km/h (4 Bft)
15.07.2010 10:30 22,4 C 56 % 1011,3 hPa 0,0 mm 8,0 km/h (2 Bft) SW 225 10 min 5 UV-I 766 W/m 25,7 km/h (4 Bft)
15.07.2010 10:40 22,6 C 56 % 1011,4 hPa 0,0 mm 9,7 km/h (2 Bft) W-SW 247 10 min 5 UV-I 830 W/m 29,0 km/h (5 Bft)
15.07.2010 10:50 22,8 C 53 % 1011,4 hPa 0,0 mm 9,7 km/h (2 Bft) W-SW 247 10 min 5 UV-I 751 W/m 24,1 km/h (4 Bft)
15.07.2010 11:00 22,9 C 54 % 1011,2 hPa 0,0 mm 11,3 km/h (2 Bft) W-SW 247 10 min 5 UV-I 796 W/m 24,1 km/h (4 Bft)
15.07.2010 11:10 23,0 C 50 % 1011,5 hPa 0,0 mm 12,9 km/h (3 Bft) W 270 10 min 6 UV-I 830 W/m 32,2 km/h (5 Bft)
15.07.2010 11:20 23,2 C 50 % 1011,5 hPa 0,0 mm 9,7 km/h (2 Bft) SW 225 10 min 6 UV-I 819 W/m 30,6 km/h (5 Bft)
15.07.2010 11:30 23,6 C 48 % 1011,8 hPa 0,0 mm 9,7 km/h (2 Bft) SW 225 10 min 6 UV-I 824 W/m 30,6 km/h (5 Bft)
15.07.2010 11:40 23,8 C 49 % 1011,8 hPa 0,0 mm 8,0 km/h (2 Bft) W 270 10 min 7 UV-I 965 W/m 24,1 km/h (4 Bft)
15.07.2010 11:50 23,7 C 50 % 1011,8 hPa 0,0 mm 9,7 km/h (2 Bft) W-SW 247 10 min 7 UV-I 956 W/m 29,0 km/h (5 Bft)
15.07.2010 12:00 23,6 C 51 % 1011,8 hPa 0,0 mm 9,7 km/h (2 Bft) W-SW 247 10 min 7 UV-I 979 W/m 25,7 km/h (4 Bft)
15.07.2010 12:10 24,2 C 46 % 1011,8 hPa 0,0 mm 9,7 km/h (2 Bft) W 270 10 min 7 UV-I 1013 W/m 27,4 km/h (4 Bft)
15.07.2010 12:20 23,5 C 47 % 1011,9 hPa 0,0 mm 9,7 km/h (2 Bft) W-SW 247 10 min 7 UV-I 1013 W/m 29,0 km/h (5 Bft)
15.07.2010 12:30 23,4 C 47 % 1011,9 hPa 0,0 mm 9,7 km/h (2 Bft) W 270 10 min 8 UV-I 981 W/m 22,5 km/h (4 Bft)
15.07.2010 12:40 24,3 C 46 % 1011,9 hPa 0,0 mm 8,0 km/h (2 Bft) W 270 10 min 8 UV-I 997 W/m 22,5 km/h (4 Bft)
15.07.2010 12:50 24,4 C 44 % 1012,0 hPa 0,0 mm 6,4 km/h (2 Bft) S-SW 202 10 min 8 UV-I 1025 W/m 20,9 km/h (4 Bft)
15.07.2010 13:00 24,5 C 44 % 1011,9 hPa 0,0 mm 6,4 km/h (2 Bft) W-SW 247 10 min 8 UV-I 983 W/m 24,1 km/h (4 Bft)
15.07.2010 13:10 25,1 C 40 % 1012,0 hPa 0,0 mm 11,3 km/h (2 Bft) W-SW 247 10 min 8 UV-I 1023 W/m 29,0 km/h (5 Bft)
15.07.2010 13:20 25,0 C 42 % 1012,1 hPa 0,0 mm 11,3 km/h (2 Bft) SW 225 10 min 8 UV-I 991 W/m 30,6 km/h (5 Bft)
15.07.2010 13:30 25,6 C 38 % 1012,1 hPa 0,0 mm 9,7 km/h (2 Bft) SW 225 10 min 8 UV-I 1007 W/m 25,7 km/h (4 Bft)
15.07.2010 13:40 25,9 C 37 % 1012,1 hPa 0,0 mm 9,7 km/h (2 Bft) W-SW 247 10 min 8 UV-I 983 W/m 25,7 km/h (4 Bft)
15.07.2010 13:50 25,9 C 37 % 1012,1 hPa 0,0 mm 9,7 km/h (2 Bft) SW 225 10 min 8 UV-I 1014 W/m 25,7 km/h (4 Bft)
15.07.2010 14:00 25,3 C 38 % 1012,2 hPa 0,0 mm 8,0 km/h (2 Bft) S-SW 202 10 min 8 UV-I 1060 W/m 25,7 km/h (4 Bft)
15.07.2010 14:10 24,3 C 41 % 1012,3 hPa 0,0 mm 8,0 km/h (2 Bft) W-SW 247 0 min 8 UV-I 267 W/m 25,7 km/h (4 Bft)
15.07.2010 14:20 25,3 C 41 % 1012,2 hPa 0,0 mm 4,8 km/h (1 Bft) SW 225 10 min 8 UV-I 1028 W/m 20,9 km/h (4 Bft)
15.07.2010 14:30 25,3 C 42 % 1012,2 hPa 0,0 mm 6,4 km/h (2 Bft) W-SW 247 10 min 8 UV-I 990 W/m 17,7 km/h (3 Bft)
15.07.2010 14:40 26,2 C 38 % 1012,2 hPa 0,0 mm 9,7 km/h (2 Bft) S-SW 202 10 min 7 UV-I 998 W/m 29,0 km/h (5 Bft)
15.07.2010 14:50 26,7 C 38 % 1012,1 hPa 0,0 mm 6,4 km/h (2 Bft) SW 225 10 min 7 UV-I 997 W/m 17,7 km/h (3 Bft)
15.07.2010 15:00 26,4 C 37 % 1012,2 hPa 0,0 mm 9,7 km/h (2 Bft) W-SW 247 10 min 7 UV-I 967 W/m 24,1 km/h (4 Bft)
15.07.2010 15:10 25,4 C 39 % 1012,4 hPa 0,0 mm 9,7 km/h (2 Bft) SW 225 10 min 7 UV-I 942 W/m 20,9 km/h (4 Bft)
15.07.2010 15:20 25,4 C 39 % 1012,4 hPa 0,0 mm 8,0 km/h (2 Bft) S-SW 202 10 min 7 UV-I 979 W/m 20,9 km/h (4 Bft)
15.07.2010 15:30 25,7 C 38 % 1012,4 hPa 0,0 mm 9,7 km/h (2 Bft) W-SW 247 10 min 7 UV-I 946 W/m 25,7 km/h (4 Bft)
15.07.2010 15:40 25,1 C 39 % 1012,5 hPa 0,0 mm 6,4 km/h (2 Bft) W 270 10 min 6 UV-I 993 W/m 19,3 km/h (3 Bft)
15.07.2010 15:50 24,6 C 39 % 1012,5 hPa 0,0 mm 9,7 km/h (2 Bft) W-SW 247 10 min 6 UV-I 954 W/m 25,7 km/h (4 Bft)
15.07.2010 16:00 25,6 C 39 % 1012,6 hPa 0,0 mm 8,0 km/h (2 Bft) S 190 10 min 5 UV-I 853 W/m 20,9 km/h (4 Bft)
15.07.2010 16:10 25,0 C 38 % 1012,6 hPa 0,0 mm 6,4 km/h (2 Bft) W 270 10 min 5 UV-I 856 W/m 19,3 km/h (3 Bft)
15.07.2010 16:20 24,8 C 40 % 1012,6 hPa 0,0 mm 6,4 km/h (2 Bft) W 270 10 min 5 UV-I 853 W/m 20,9 km/h (4 Bft)
15.07.2010 16:30 25,8 C 39 % 1012,6 hPa 0,0 mm 9,7 km/h (2 Bft) W 270 10 min 5 UV-I 795 W/m 20,9 km/h (4 Bft)
15.07.2010 16:40 25,9 C 37 % 1012,6 hPa 0,0 mm 9,7 km/h (2 Bft) W 270 10 min 4 UV-I 751 W/m 29,0 km/h (5 Bft)
15.07.2010 16:50 25,3 C 38 % 1012,6 hPa 0,0 mm 6,4 km/h (2 Bft) W-SW 247 10 min 4 UV-I 728 W/m 22,5 km/h (4 Bft)
15.07.2010 17:00 25,9 C 37 % 1012,6 hPa 0,0 mm 6,4 km/h (2 Bft) W-SW 247 10 min 4 UV-I 754 W/m 20,9 km/h (4 Bft)
15.07.2010 17:10 25,4 C 36 % 1012,7 hPa 0,0 mm 8,0 km/h (2 Bft) W-SW 247 10 min 4 UV-I 698 W/m 17,7 km/h (3 Bft)
15.07.2010 17:20 25,9 C 37 % 1012,6 hPa 0,0 mm 6,4 km/h (2 Bft) W-SW 247 10 min 3 UV-I 684 W/m 17,7 km/h (3 Bft)
15.07.2010 17:30 24,8 C 38 % 1012,6 hPa 0,0 mm 6,4 km/h (2 Bft) W-SW 247 10 min 3 UV-I 656 W/m 20,9 km/h (4 Bft)
15.07.2010 17:40 25,6 C 36 % 1012,6 hPa 0,0 mm 6,4 km/h (2 Bft) W-SW 247 10 min 3 UV-I 649 W/m 20,9 km/h (4 Bft)
15.07.2010 17:50 25,9 C 36 % 1012,6 hPa 0,0 mm 6,4 km/h (2 Bft) W 270 10 min 3 UV-I 638 W/m 16,1 km/h (3 Bft)
15.07.2010 18:00 25,8 C 35 % 1012,7 hPa 0,0 mm 6,4 km/h (2 Bft) W 270 10 min 2 UV-I 557 W/m 17,7 km/h (3 Bft)
15.07.2010 18:10 25,3 C 37 % 1012,7 hPa 0,0 mm 4,8 km/h (1 Bft) S-SW 202 10 min 2 UV-I 538 W/m 17,7 km/h (3 Bft)
15.07.2010 18:20 25,4 C 37 % 1012,7 hPa 0,0 mm 3,2 km/h (1 Bft) W 270 10 min 2 UV-I 515 W/m 16,1 km/h (3 Bft)
15.07.2010 18:30 25,9 C 35 % 1012,7 hPa 0,0 mm 4,8 km/h (1 Bft) SW 225 10 min 2 UV-I 490 W/m 16,1 km/h (3 Bft)
15.07.2010 18:40 25,6 C 35 % 1012,7 hPa 0,0 mm 9,7 km/h (2 Bft) W-SW 247 10 min 2 UV-I 446 W/m 24,1 km/h (4 Bft)
15.07.2010 18:50 25,5 C 36 % 1012,6 hPa 0,0 mm 4,8 km/h (1 Bft) W 270 10 min 1 UV-I 413 W/m 16,1 km/h (3 Bft)
15.07.2010 19:00 24,8 C 38 % 1012,6 hPa 0,0 mm 6,4 km/h (2 Bft) W 270 10 min 1 UV-I 350 W/m 22,5 km/h (4 Bft)
15.07.2010 19:10 24,7 C 38 % 1012,6 hPa 0,0 mm 6,4 km/h (2 Bft) W-SW 247 10 min 1 UV-I 334 W/m 17,7 km/h (3 Bft)
15.07.2010 19:20 24,9 C 39 % 1012,6 hPa 0,0 mm 3,2 km/h (1 Bft) W 270 10 min 1 UV-I 301 W/m 11,3 km/h (2 Bft)
15.07.2010 19:30 24,9 C 39 % 1012,7 hPa 0,0 mm 6,4 km/h (2 Bft) W 270 10 min 1 UV-I 269 W/m 16,1 km/h (3 Bft)
15.07.2010 19:40 24,9 C 39 % 1012,8 hPa 0,0 mm 3,2 km/h (1 Bft) W 270 10 min 1 UV-I 244 W/m 14,5 km/h (3 Bft)
15.07.2010 19:50 24,8 C 40 % 1012,9 hPa 0,0 mm 3,2 km/h (1 Bft) W 270 10 min 1 UV-I 211 W/m 11,3 km/h (2 Bft)
15.07.2010 20:00 24,6 C 40 % 1013,1 hPa 0,0 mm 4,8 km/h (1 Bft) W 270 10 min 1 UV-I 183 W/m 11,3 km/h (2 Bft)
15.07.2010 20:10 24,2 C 40 % 1013,2 hPa 0,0 mm 3,2 km/h (1 Bft) W-SW 247 10 min 1 UV-I 149 W/m 9,7 km/h (2 Bft)
15.07.2010 20:20 23,8 C 41 % 1013,4 hPa 0,0 mm 3,2 km/h (1 Bft) W-SW 247 10 min 1 UV-I 137 W/m 11,3 km/h (2 Bft)
15.07.2010 20:30 23,4 C 41 % 1013,4 hPa 0,0 mm 3,2 km/h (1 Bft) S-SW 202 0 min 0 UV-I 39 W/m 11,3 km/h (2 Bft)
15.07.2010 20:40 23,2 C 42 % 1013,5 hPa 0,0 mm 1,6 km/h (1 Bft) S-SW 202 0 min 0 UV-I 32 W/m 8,0 km/h (2 Bft)
15.07.2010 20:50 22,9 C 44 % 1013,6 hPa 0,0 mm 1,6 km/h (1 Bft) S-SW 202 0 min 0 UV-I 26 W/m 8,0 km/h (2 Bft)
15.07.2010 21:00 22,6 C 45 % 1013,6 hPa 0,0 mm 1,6 km/h (1 Bft) W-SW 247 0 min 0 UV-I 23 W/m 6,4 km/h (2 Bft)
15.07.2010 21:10 22,3 C 45 % 1013,7 hPa 0,0 mm 0,0 km/h (0 Bft) W-SW 247 0 min 0 UV-I 18 W/m 6,4 km/h (2 Bft)
15.07.2010 21:20 22,1 C 46 % 1013,9 hPa 0,0 mm 0,0 km/h (0 Bft) W 270 10 min 0 UV-I 14 W/m 4,8 km/h (1 Bft)
15.07.2010 21:30 21,8 C 48 % 1013,9 hPa 0,0 mm 0,0 km/h (0 Bft) W 270 0 min 0 UV-I 9 W/m 1,6 km/h (1 Bft)
15.07.2010 21:40 21,4 C 50 % 1014,1 hPa 0,0 mm 0,0 km/h (0 Bft) N 0 0 min 0 UV-I 5 W/m 0,0 km/h (0 Bft)
15.07.2010 21:50 20,8 C 52 % 1014,3 hPa 0,0 mm 0,0 km/h (0 Bft) N 0 0 min 0 UV-I 0 W/m 0,0 km/h (0 Bft)
15.07.2010 22:00 20,4 C 54 % 1014,4 hPa 0,0 mm 0,0 km/h (0 Bft) N 0 0 min 0 UV-I 0 W/m 0,0 km/h (0 Bft)
15.07.2010 22:10 19,8 C 57 % 1014,4 hPa 0,0 mm 0,0 km/h (0 Bft) N 0 0 min 0 UV-I 0 W/m 0,0 km/h (0 Bft)
15.07.2010 22:20 19,6 C 58 % 1014,5 hPa 0,0 mm 0,0 km/h (0 Bft) N 0 0 min 0 UV-I 0 W/m 0,0 km/h (0 Bft)
15.07.2010 22:30 19,4 C 57 % 1014,5 hPa 0,0 mm 0,0 km/h (0 Bft) W 259 0 min 0 UV-I 0 W/m 0,0 km/h (0 Bft)
15.07.2010 22:40 18,8 C 60 % 1014,5 hPa 0,0 mm 0,0 km/h (0 Bft) W 259 0 min 0 UV-I 0 W/m 0,0 km/h (0 Bft)
15.07.2010 22:50 18,7 C 60 % 1014,4 hPa 0,0 mm 0,0 km/h (0 Bft) W 259 0 min 0 UV-I 0 W/m 0,0 km/h (0 Bft)
15.07.2010 23:00 18,1 C 63 % 1014,6 hPa 0,0 mm 0,0 km/h (0 Bft) W 259 0 min 0 UV-I 0 W/m 1,6 km/h (1 Bft)
15.07.2010 23:10 17,8 C 64 % 1014,6 hPa 0,0 mm 0,0 km/h (0 Bft) W 259 0 min 0 UV-I 0 W/m 1,6 km/h (1 Bft)
15.07.2010 23:20 18,1 C 62 % 1014,7 hPa 0,0 mm 0,0 km/h (0 Bft) W 259 0 min 0 UV-I 0 W/m 1,6 km/h (1 Bft)
15.07.2010 23:30 17,8 C 63 % 1014,6 hPa 0,0 mm 0,0 km/h (0 Bft) W 259 0 min 0 UV-I 0 W/m 1,6 km/h (1 Bft)
15.07.2010 23:40 17,6 C 63 % 1014,8 hPa 0,0 mm 0,0 km/h (0 Bft) W 259 0 min 0 UV-I 0 W/m 1,6 km/h (1 Bft)
15.07.2010 23:50 17,3 C 65 % 1014,8 hPa 0,0 mm 0,0 km/h (0 Bft) N 0 0 min 0 UV-I 0 W/m 0,0 km/h (0 Bft)
_ Min-Zeit 23:50 18:00 00:00 - 00:00 - - - - - 03:10
Minimum _ 17,3 C 35 % 1005,5 hPa - 0,0 km/h (0 Bft) - - - - - 0,0 km/h (0 Bft)
_ Max-Zeit 14:50 00:00 23:40 00:00 11:10 - - 06:40 14:00 14:00 11:10
Maximum _ 26,7 C 92 % 1014,8 hPa 0,0 mm 12,9 km/h
W (3 Bft)
- - 10 min 8 UV-I 1060 W/m 32,2 km/h
W (5 Bft)
Durchschnitt _ 21,7 C 62 % 1011,0 hPa #0,0 mm 4,4 km/h (1 Bft) W-SW - #13:30 h 4 UV-I 567 W/m 14,0 km/h (3 Bft)